Regional Weather Roundup
Issued by NWS

Home | Current Version | Previous Version | Graphics & Text | Print | Product List | Glossary On
Versions: 1 2 3 4 5 6 7 8 9 10 11 12 13 14 15 16 17 18 19 20 21 22 23 24 25 26 27 28 29 30 31 32 33 34 35 36 37 38 39 40 41 42 43 44 45 46 47 48 49 50
000
ASUS45 KTFX 290510
RWRMT
MONTANA REGIONAL WEATHER ROUNDUP
NATIONAL WEATHER SERVICE GREAT FALLS MT
1100 PM MDT THU APR 28 2016

NOTE: "FAIR" INDICATES FEW OR NO CLOUDS BELOW 12000 FEET WITH NO
SIGNIFICANT WEATHER AND/OR OBSTRUCTIONS TO VISIBILITY.

MTZ001>007-043-290600-
WEST OF THE DIVIDE

CITY           SKY/WX    TMP DP  RH WIND       PRES   REMARKS
KALISPELL      CLOUDY    49  29  46 E10       30.02S
MISSOULA       MOCLDY    41  30  65 NE5       30.02S
BUTTE          CLOUDY    34  31  88 CALM      29.99F
MULLAN PASS    CLOUDY    31  30  96 CALM      29.98S
ANACONDA         N/A     36  28  75 N3        29.99F
DEER LODGE       N/A     37  28  70 N7        30.01S
EUREKA           N/A     45  32  61 CALM      30.04S
HAMILTON         N/A     39  36  87 SE5       30.00F
LIBBY            N/A     43  34  70 SE5       30.03S
PLAINS           N/A     45  35  67 CALM      30.01S
$$

MTZ008-052>055-290600-
SOUTHWEST MONTANA

CITY           SKY/WX    TMP DP  RH WIND       PRES   REMARKS
BOZEMAN        CLOUDY    39  26  59 NE3       30.00F
DILLON         CLOUDY    34  26  72 NE7       29.97S WCI  28
ENNIS          CLOUDY    36  27  69 N12       30.02S WCI  27
THREE FORKS      N/A     39  33  79 CALM      30.01S
TWIN BRIDGES     N/A     39  24  55 N12       29.97R WCI  32
$$

MTZ009-010-012-014-046-048-049-054-290600-
EAST SLOPES AND CENTRAL MONTANA

CITY           SKY/WX    TMP DP  RH WIND       PRES   REMARKS
CUT BANK       MOCLDY    38  35  89 CALM      30.08S
GREAT FALLS    CLOUDY    38  33  82 E9        30.06S WCI  31
HELENA         CLOUDY    40  31  70 W8        30.02S
CHOTEAU          N/A     37  37 100 N8        30.08S WCI  31
CONRAD           N/A     39  39 100 CALM      30.09F
$$

MTZ011-013-016-021-045-047-050-051-290600-
NORTH CENTRAL MONTANA

CITY           SKY/WX    TMP DP  RH WIND       PRES   REMARKS
HAVRE          CLOUDY    45  36  70 CALM      30.11S
LEWISTOWN      CLOUDY    37  31  78 E8        30.08F WCI  31
N BAR RANCH    CLOUDY    34  32  93 CALM      30.10F
CHINOOK          N/A     45  36  70 CALM      30.12S
$$

MTZ017>020-022>027-061-062-290600-
NORTHEAST MONTANA

CITY           SKY/WX    TMP DP  RH WIND       PRES   REMARKS
GLASGOW        CLOUDY    42  32  67 S7        30.14R
JORDAN           N/A     42  34  73 S8        30.12S
SIDNEY         CLOUDY    45  28  53 CALM      30.16S
WOLF POINT     CLOUDY    45  36  70 NE6       30.15S
PLENTYWOOD       N/A     46  19  34 E7        30.17S
POPLAR           N/A     46  32  57 E5        30.16S
SCOBEY           N/A     41  19  41 E7        30.13S
$$

MTZ028>42-056>058-290600-
SOUTHCENTRAL AND SOUTHEAST MONTANA

CITY           SKY/WX    TMP DP  RH WIND       PRES   REMARKS
BAKER          CLOUDY    39  34  82 S5        30.15S
BILLINGS       CLOUDY    36  34  92 NE5       30.09F
LIVINGSTON     CLOUDY    35  28  75 E16       30.03F WCI  25
MILES CITY     CLOUDY    41  34  76 SE9       30.13S
EKALAKA          N/A     35  30  82 SE2       30.09S
FORSYTH          N/A     39  39 100 E6        30.13F
LAUREL           N/A     34  24  67 CALM      30.06F
ROUNDUP          N/A     37  33  85 CALM      30.01S
$$

REGIONAL REPORTS...DAKOTAS

CITY           SKY/WX    TMP DP  RH WIND       PRES   REMARKS
WILLISTON      CLOUDY    43  27  53 N3        30.16F
MINOT          CLOUDY    46  21  37 NE6       30.18S
DICKINSON      MOCLDY    40  28  62 E5        30.12S
BEACH          CLOUDY    39  39 100 W3        30.17F
CROSBY           N/A     34  19  55 E6        30.21F WCI  29
TIOGA            N/A     36  25  64 E3        30.23S
WATFORD CITY   CLOUDY    41  27  56 E3        30.16F
BISMARCK       CLOUDY    46  32  58 NE8       30.16S
GRAND FORKS    CLOUDY    35  28  75 N6        30.16S WCI  30
FARGO          CLOUDY    46  28  49 NE7       30.13R
BUFFALO SD       N/A     38  34  85 NW5       30.08R
RAPID CITY     CLOUDY    37  34  89 N3        30.13F
$$

REGIONAL REPORTS...WYOMING/IDAHO/WASHINGTON

CITY           SKY/WX    TMP DP  RH WIND       PRES   REMARKS
GILLETTE       CLOUDY    35  33  92 CALM      30.09F
SHERIDAN       CLOUDY    37  33  85 CALM      30.08F
BUFFALO WY       N/A    N/A N/A N/A MISG      30.08F
CODY           CLOUDY    34  28  80 NE3       30.04F
YELLOWSTONE LA   N/A     30  22  72 CALM      29.97R
IDAHO FALLS    CLEAR     39  26  59 N8        29.89R
SALMON         CLOUDY    41  34  75 CALM      29.95S
BOISE          CLOUDY    56  33  42 N10       29.86R
SPOKANE        CLOUDY    56  33  42 E12       29.96R
$$

REGIONAL REPORTS...ALBERTA

CITY           SKY/WX    TMP DP  RH WIND       PRES   REMARKS
EDMONTON       CLEAR     52  30  43 S18G28    29.99F
CALGARY        MOCLDY    43  30  61 S13       30.04S
LETHBRIDGE     PTCLDY    37  32  81 W5        30.06F
MEDICINE HAT   CLEAR     45  34  65 S6        30.08F
$$

REGIONAL REPORTS...SASKATCHEWAN

CITY           SKY/WX    TMP DP  RH WIND       PRES   REMARKS
SWIFT CURRENT  CLEAR     37  23  56 SE8       30.12S WCI  31
REGINA         MOCLDY    46  19  34 E12       30.20S
SASKATOON      MOCLDY    48  25  40 SE12      30.19F
$$



USA.gov is the U.S. government's official web portal to all federal, state and local government web resources and services.